Time,TemperatureF,DewpointF,PressureIn,WindDirection,WindDirectionDegrees,WindSpeedMPH,WindSpeedGustMPH,Humidity,HourlyPrecipIn,Conditions,Clouds,dailyrainin,SolarRadiationWatts/m^2,SoftwareType,DateUTC
2013-06-11 00:00:00,73.6,66.3,29.88,East,87,0.0,0.0,78,0.00,RA,,0.00,0.0,WeatherDisplay:10.37,2013-06-11 05:00:00,
2013-06-11 00:10:00,73.7,66.4,29.88,East,87,0.0,1.0,78,0.00,SCT,,0.00,0.0,WeatherDisplay:10.37,2013-06-11 05:10:00,
2013-06-11 00:20:00,73.7,66.8,29.88,East,86,0.0,1.0,79,0.00,SCT,,0.00,0.0,WeatherDisplay:10.37,2013-06-11 05:20:00,
2013-06-11 00:30:00,73.5,66.2,29.88,East,86,0.0,1.0,78,0.00,CLR,,0.00,0.0,WeatherDisplay:10.37,2013-06-11 05:30:00,
2013-06-11 00:40:00,73.3,66.4,29.88,East,86,0.0,1.0,79,0.00,CLR,,0.00,0.0,WeatherDisplay:10.37,2013-06-11 05:40:00,
2013-06-11 01:30:00,72.4,66.2,29.88,East,97,1.0,2.0,81,0.00,CLR,,0.00,0.0,WeatherDisplay:10.37,2013-06-11 06:30:00,
2013-06-11 01:40:00,72.2,66.0,29.88,East,101,0.0,1.0,81,0.00,CLR,,0.00,0.0,WeatherDisplay:10.37,2013-06-11 06:40:00,
2013-06-11 01:50:00,72.1,65.9,29.88,East,94,0.0,3.0,81,0.00,CLR,,0.00,0.0,WeatherDisplay:10.37,2013-06-11 06:50:00,
2013-06-11 02:00:00,72.0,66.2,29.88,East,95,0.0,2.0,82,0.00,CLR,,0.00,0.0,WeatherDisplay:10.37,2013-06-11 07:00:00,
2013-06-11 02:10:00,71.8,66.0,29.88,East,92,0.0,1.0,82,0.00,CLR,,0.00,0.0,WeatherDisplay:10.37,2013-06-11 07:10:00,
2013-06-11 02:20:00,71.6,65.8,29.88,East,84,0.0,1.0,82,0.00,CLR,,0.00,0.0,WeatherDisplay:10.37,2013-06-11 07:20:00,
2013-06-11 02:30:00,71.3,65.9,29.88,East,98,0.0,2.0,83,0.00,CLR,,0.00,0.0,WeatherDisplay:10.37,2013-06-11 07:30:00,
2013-06-11 02:40:00,71.1,65.7,29.88,East,91,0.0,0.0,83,0.00,CLR,,0.00,0.0,WeatherDisplay:10.37,2013-06-11 07:40:00,
2013-06-11 02:50:00,71.1,66.0,29.88,ENE,78,0.0,0.0,84,0.00,CLR,,0.00,0.0,WeatherDisplay:10.37,2013-06-11 07:50:00,
2013-06-11 03:00:00,71.0,65.9,29.88,NE,53,0.0,2.0,84,0.00,CLR,,0.00,0.0,WeatherDisplay:10.37,2013-06-11 08:00:00,
2013-06-11 03:10:00,70.8,65.8,29.88,ENE,57,0.0,1.0,84,0.00,CLR,,0.00,0.0,WeatherDisplay:10.37,2013-06-11 08:10:00,
2013-06-11 03:20:00,70.5,65.4,29.88,ENE,57,0.0,1.0,84,0.00,CLR,,0.00,0.0,WeatherDisplay:10.37,2013-06-11 08:20:00,
2013-06-11 03:30:00,70.0,65.6,29.88,ENE,57,0.0,0.0,86,0.00,CLR,,0.00,0.0,WeatherDisplay:10.37,2013-06-11 08:30:00,
2013-06-11 03:40:00,69.7,65.3,29.89,ENE,57,0.0,0.0,86,0.00,CLR,,0.00,0.0,WeatherDisplay:10.37,2013-06-11 08:40:00,
2013-06-11 03:50:00,69.5,65.5,29.89,ENE,57,0.0,0.0,87,0.00,CLR,,0.00,0.0,WeatherDisplay:10.37,2013-06-11 08:50:00,
2013-06-11 04:00:00,69.5,65.5,29.89,ENE,57,0.0,1.0,87,0.00,CLR,,0.00,0.0,WeatherDisplay:10.37,2013-06-11 09:00:00,
2013-06-11 04:10:00,69.5,65.4,29.89,NE,56,0.0,1.0,87,0.00,CLR,,0.00,0.0,WeatherDisplay:10.37,2013-06-11 09:10:00,
2013-06-11 04:20:00,69.1,65.1,29.89,ENE,57,0.0,0.0,87,0.00,CLR,,0.00,0.0,WeatherDisplay:10.37,2013-06-11 09:20:00,
2013-06-11 04:30:00,68.9,65.2,29.90,ENE,57,0.0,0.0,88,0.00,CLR,,0.00,0.0,WeatherDisplay:10.37,2013-06-11 09:30:00,
2013-06-11 04:40:00,68.9,65.2,29.90,ENE,57,0.0,1.0,88,0.00,CLR,,0.00,0.0,WeatherDisplay:10.37,2013-06-11 09:40:00,
2013-06-11 04:50:00,68.8,65.1,29.90,ENE,57,0.0,1.0,88,0.00,CLR,,0.00,0.0,WeatherDisplay:10.37,2013-06-11 09:50:00,
2013-06-11 05:00:00,68.3,65.0,29.90,ENE,57,0.0,1.0,89,0.00,CLR,,0.00,0.0,WeatherDisplay:10.37,2013-06-11 10:00:00,
2013-06-11 05:10:00,68.0,65.0,29.90,ENE,57,0.0,1.0,90,0.00,CLR,,0.00,0.0,WeatherDisplay:10.37,2013-06-11 10:10:00,
2013-06-11 05:20:00,67.9,64.8,29.91,ENE,57,0.0,0.0,90,0.00,CLR,,0.00,0.0,WeatherDisplay:10.37,2013-06-11 10:20:00,
2013-06-11 05:30:00,67.6,64.9,29.91,ENE,57,0.0,0.0,91,0.00,CLR,,0.00,0.0,WeatherDisplay:10.37,2013-06-11 10:30:00,
2013-06-11 05:40:00,67.3,64.9,29.92,ENE,57,0.0,0.0,92,0.00,CLR,,0.00,0.0,WeatherDisplay:10.37,2013-06-11 10:40:00,
2013-06-11 05:50:00,67.2,64.8,29.92,ENE,57,0.0,0.0,92,0.00,CLR,,0.00,0.0,WeatherDisplay:10.37,2013-06-11 10:50:00,
2013-06-11 06:00:00,67.6,65.2,29.92,ENE,57,0.0,1.0,92,0.00,CLR,,0.00,0.0,WeatherDisplay:10.37,2013-06-11 11:00:00,
2013-06-11 06:10:00,68.3,65.6,29.92,NE,51,1.0,2.0,91,0.00,CLR,,0.00,0.0,WeatherDisplay:10.37,2013-06-11 11:10:00,
2013-06-11 06:20:00,68.8,65.7,29.93,East,97,0.0,1.0,90,0.00,CLR,,0.00,0.0,WeatherDisplay:10.37,2013-06-11 11:20:00,
2013-06-11 06:30:00,70.0,66.3,29.93,South,176,0.0,1.0,88,0.00,CLR,,0.00,0.0,WeatherDisplay:10.37,2013-06-11 11:30:00,
2013-06-11 06:40:00,70.7,66.7,29.93,South,175,0.0,0.0,87,0.00,CLR,,0.00,0.0,WeatherDisplay:10.37,2013-06-11 11:40:00,
2013-06-11 06:50:00,72.1,67.0,29.94,East,99,0.0,2.0,84,0.00,CLR,,0.00,0.0,WeatherDisplay:10.37,2013-06-11 11:50:00,
2013-06-11 07:00:00,72.9,67.4,29.94,ESE,120,0.0,1.0,83,0.00,CLR,,0.00,0.0,WeatherDisplay:10.37,2013-06-11 12:00:00,
2013-06-11 07:10:00,73.6,67.1,29.93,ESE,115,0.0,3.0,80,0.00,CLR,,0.00,0.0,WeatherDisplay:10.37,2013-06-11 12:10:00,
2013-06-11 07:20:00,74.0,67.8,29.94,ESE,114,0.0,4.0,81,0.00,CLR,,0.00,0.0,WeatherDisplay:10.37,2013-06-11 12:20:00,
2013-06-11 07:30:00,74.1,67.5,29.94,ESE,116,2.0,4.0,80,0.00,CLR,,0.00,0.0,WeatherDisplay:10.37,2013-06-11 12:30:00,
2013-06-11 07:40:00,74.9,68.3,29.94,SE,127,1.0,4.0,80,0.00,CLR,,0.00,0.0,WeatherDisplay:10.37,2013-06-11 12:40:00,
2013-06-11 07:50:00,75.9,68.9,29.94,SSE,159,1.0,3.0,79,0.00,CLR,,0.00,0.0,WeatherDisplay:10.37,2013-06-11 12:50:00,
2013-06-11 08:00:00,76.7,69.0,29.95,East,101,1.0,3.0,77,0.00,CLR,,0.00,0.0,WeatherDisplay:10.37,2013-06-11 13:00:00,
2013-06-11 08:10:00,77.5,69.7,29.95,ESE,109,1.0,4.0,77,0.00,CLR,,0.00,0.0,WeatherDisplay:10.37,2013-06-11 13:10:00,
2013-06-11 08:20:00,78.5,70.3,29.95,SSE,150,1.0,2.0,76,0.00,CLR,,0.00,0.0,WeatherDisplay:10.37,2013-06-11 13:20:00,
2013-06-11 08:30:00,79.2,70.6,29.96,SE,135,1.0,4.0,75,0.00,CLR,,0.00,0.0,WeatherDisplay:10.37,2013-06-11 13:30:00,
2013-06-11 08:40:00,79.8,71.2,29.96,SSW,203,1.0,3.0,75,0.00,CLR,,0.00,0.0,WeatherDisplay:10.37,2013-06-11 13:40:00,
2013-06-11 08:50:00,80.2,71.5,29.96,SSE,162,1.0,3.0,75,0.00,CLR,,0.00,0.0,WeatherDisplay:10.37,2013-06-11 13:50:00,
2013-06-11 09:00:00,81.6,72.5,29.95,SSE,148,1.0,3.0,74,0.00,CLR,,0.00,0.0,WeatherDisplay:10.37,2013-06-11 14:00:00,
2013-06-11 09:10:00,81.5,72.0,29.95,South,172,1.0,3.0,73,0.00,CLR,,0.00,0.0,WeatherDisplay:10.37,2013-06-11 14:10:00,
2013-06-11 09:20:00,82.3,72.4,29.95,SSW,209,1.0,3.0,72,0.00,CLR,,0.00,0.0,WeatherDisplay:10.37,2013-06-11 14:20:00,
2013-06-11 09:30:00,83.9,73.1,29.95,SSW,205,0.0,2.0,70,0.00,CLR,,0.00,0.0,WeatherDisplay:10.37,2013-06-11 14:30:00,
2013-06-11 09:40:00,85.7,73.0,29.95,SE,131,1.0,3.0,66,0.00,CLR,,0.00,0.0,WeatherDisplay:10.37,2013-06-11 14:40:00,
2013-06-11 09:50:00,85.5,73.3,29.95,SW,218,2.0,4.0,67,0.00,CLR,,0.00,0.0,WeatherDisplay:10.37,2013-06-11 14:50:00,
2013-06-11 10:00:00,86.1,74.8,29.95,SSW,205,1.0,4.0,69,0.00,CLR,,0.00,0.0,WeatherDisplay:10.37,2013-06-11 15:00:00,
2013-06-11 10:10:00,86.3,74.5,29.95,SSE,153,1.0,4.0,68,0.00,CLR,,0.00,0.0,WeatherDisplay:10.37,2013-06-11 15:10:00,
2013-06-11 10:20:00,87.1,75.3,29.95,South,188,1.0,4.0,68,0.00,CLR,,0.00,0.0,WeatherDisplay:10.37,2013-06-11 15:20:00,
2013-06-11 10:30:00,87.7,73.5,29.95,SSW,196,1.0,4.0,63,0.00,CLR,,0.00,0.0,WeatherDisplay:10.37,2013-06-11 15:30:00,
2013-06-11 10:40:00,88.1,75.3,29.95,SSW,208,2.0,4.0,66,0.00,CLR,,0.00,0.0,WeatherDisplay:10.37,2013-06-11 15:40:00,
2013-06-11 10:50:00,88.6,74.8,29.95,South,182,3.0,5.0,64,0.00,CLR,,0.00,0.0,WeatherDisplay:10.37,2013-06-11 15:50:00,
2013-06-11 11:00:00,88.8,75.1,29.95,SSW,207,2.0,6.0,64,0.00,CLR,,0.00,0.0,WeatherDisplay:10.37,2013-06-11 16:00:00,
2013-06-11 11:10:00,89.5,75.7,29.95,SSW,197,1.0,4.0,64,0.00,CLR,,0.00,0.0,WeatherDisplay:10.37,2013-06-11 16:10:00,
2013-06-11 11:20:00,90.5,77.2,29.95,SSW,203,1.0,5.0,65,0.00,CLR,,0.00,0.0,WeatherDisplay:10.37,2013-06-11 16:20:00,
2013-06-11 11:30:00,90.3,75.5,29.96,SW,215,3.0,7.0,62,0.00,CLR,,0.00,0.0,WeatherDisplay:10.37,2013-06-11 16:30:00,
2013-06-11 11:40:00,90.7,75.4,29.95,SSW,209,3.0,6.0,61,0.00,CLR,,0.00,0.0,WeatherDisplay:10.37,2013-06-11 16:40:00,
2013-06-11 11:50:00,90.9,76.1,29.94,SSW,206,3.0,6.0,62,0.00,CLR,,0.00,0.0,WeatherDisplay:10.37,2013-06-11 16:50:00,
2013-06-11 12:00:00,91.3,75.4,29.94,SSW,202,3.0,6.0,60,0.00,CLR,,0.00,0.0,WeatherDisplay:10.37,2013-06-11 17:00:00,
2013-06-11 12:10:00,91.7,76.3,29.95,SW,226,3.0,7.0,61,0.00,CLR,,0.00,0.0,WeatherDisplay:10.37,2013-06-11 17:10:00,
2013-06-11 12:20:00,92.1,76.3,29.94,SSW,192,2.0,7.0,60,0.00,CLR,,0.00,0.0,WeatherDisplay:10.37,2013-06-11 17:20:00,
2013-06-11 12:30:00,92.2,75.8,29.94,SW,227,1.0,9.0,59,0.00,CLR,,0.00,0.0,WeatherDisplay:10.37,2013-06-11 17:30:00,
2013-06-11 12:40:00,92.4,75.5,29.94,SSW,210,3.0,7.0,58,0.00,CLR,,0.00,0.0,WeatherDisplay:10.37,2013-06-11 17:40:00,
2013-06-11 12:50:00,92.3,76.4,29.94,SSW,198,3.0,13.0,60,0.00,CLR,,0.00,0.0,WeatherDisplay:10.37,2013-06-11 17:50:00,
2013-06-11 13:00:00,93.0,76.5,29.93,SSW,210,3.0,7.0,59,0.00,CLR,,0.00,0.0,WeatherDisplay:10.37,2013-06-11 18:00:00,
2013-06-11 13:10:00,93.2,76.2,29.93,SSW,194,6.0,12.0,58,0.00,CLR,,0.00,0.0,WeatherDisplay:10.37,2013-06-11 18:10:00,
2013-06-11 13:20:00,93.0,75.5,29.93,SW,218,5.0,9.0,57,0.00,CLR,,0.00,0.0,WeatherDisplay:10.37,2013-06-11 18:20:00,
2013-06-11 13:30:00,93.8,74.6,29.92,SSW,213,5.0,10.0,54,0.00,CLR,,0.00,0.0,WeatherDisplay:10.37,2013-06-11 18:30:00,
2013-06-11 13:40:00,93.6,75.0,29.92,SW,236,3.0,12.0,55,0.00,CLR,,0.00,0.0,WeatherDisplay:10.37,2013-06-11 18:40:00,
2013-06-11 13:50:00,93.9,74.2,29.92,SW,230,5.0,9.0,53,0.00,CLR,,0.00,0.0,WeatherDisplay:10.37,2013-06-11 18:50:00,
2013-06-11 14:00:00,94.0,74.8,29.92,SW,219,6.0,12.0,54,0.00,CLR,,0.00,0.0,WeatherDisplay:10.37,2013-06-11 19:00:00,
2013-06-11 14:10:00,94.6,74.2,29.91,SSW,213,2.0,7.0,52,0.00,CLR,,0.00,0.0,WeatherDisplay:10.37,2013-06-11 19:10:00,
2013-06-11 14:20:00,94.4,75.2,29.91,SSW,206,3.0,13.0,54,0.00,CLR,,0.00,0.0,WeatherDisplay:10.37,2013-06-11 19:20:00,
2013-06-11 14:30:00,94.9,74.5,29.91,SW,227,3.0,10.0,52,0.00,CLR,,0.00,0.0,WeatherDisplay:10.37,2013-06-11 19:30:00,
2013-06-11 14:40:00,95.7,75.3,29.91,SW,229,3.0,9.0,52,0.00,CLR,,0.00,0.0,WeatherDisplay:10.37,2013-06-11 19:40:00,
2013-06-11 14:50:00,95.1,74.7,29.91,SSW,210,5.0,9.0,52,0.00,CLR,,0.00,0.0,WeatherDisplay:10.37,2013-06-11 19:50:00,
2013-06-11 15:00:00,94.9,73.4,29.90,SSW,205,3.0,8.0,50,0.00,CLR,,0.00,0.0,WeatherDisplay:10.37,2013-06-11 20:00:00,
2013-06-11 15:10:00,95.1,73.5,29.90,SW,233,6.0,12.0,50,0.00,CLR,,0.00,0.0,WeatherDisplay:10.37,2013-06-11 20:10:00,
2013-06-11 15:20:00,95.6,74.0,29.90,WSW,239,3.0,9.0,50,0.00,CLR,,0.00,0.0,WeatherDisplay:10.37,2013-06-11 20:20:00,
2013-06-11 15:30:00,96.2,73.9,29.89,SW,234,5.0,9.0,49,0.00,CLR,,0.00,0.0,WeatherDisplay:10.37,2013-06-11 20:30:00,
2013-06-11 15:40:00,96.0,73.8,29.89,SW,222,2.0,7.0,49,0.00,CLR,,0.00,0.0,WeatherDisplay:10.37,2013-06-11 20:40:00,
2013-06-11 15:50:00,96.2,73.9,29.89,WSW,245,2.0,9.0,49,0.00,CLR,,0.00,0.0,WeatherDisplay:10.37,2013-06-11 20:50:00,
2013-06-11 16:00:00,95.7,72.9,29.89,SW,226,2.0,12.0,48,0.00,CLR,,0.00,0.0,WeatherDisplay:10.37,2013-06-11 21:00:00,
2013-06-11 16:10:00,96.0,73.1,29.89,SW,222,3.0,12.0,48,0.00,CLR,,0.00,0.0,WeatherDisplay:10.37,2013-06-11 21:10:00,
2013-06-11 16:20:00,95.4,73.8,29.89,SW,235,2.0,10.0,50,0.00,CLR,,0.00,0.0,WeatherDisplay:10.37,2013-06-11 21:20:00,
2013-06-11 16:30:00,94.6,73.1,29.89,SW,221,3.0,8.0,50,0.00,CLR,,0.00,0.0,WeatherDisplay:10.37,2013-06-11 21:30:00,
2013-06-11 16:40:00,94.5,72.9,29.89,SW,216,3.0,7.0,50,0.00,CLR,,0.00,0.0,WeatherDisplay:10.37,2013-06-11 21:40:00,
2013-06-11 16:50:00,94.1,72.6,29.89,SW,214,2.0,9.0,50,0.00,CLR,,0.00,0.0,WeatherDisplay:10.37,2013-06-11 21:50:00,
2013-06-11 17:00:00,94.0,72.6,29.89,SSW,213,2.0,6.0,50,0.00,CLR,,0.00,0.0,WeatherDisplay:10.37,2013-06-11 22:00:00,
2013-06-11 17:10:00,93.6,73.9,29.89,SW,225,2.0,8.0,53,0.00,CLR,,0.00,0.0,WeatherDisplay:10.37,2013-06-11 22:10:00,
2013-06-11 17:20:00,93.2,74.6,29.89,SSW,209,1.0,4.0,55,0.00,CLR,,0.00,0.0,WeatherDisplay:10.37,2013-06-11 22:20:00,
2013-06-11 17:30:00,93.9,75.8,29.88,SSW,207,1.0,4.0,56,0.00,CLR,,0.00,0.0,WeatherDisplay:10.37,2013-06-11 22:30:00,
2013-06-11 17:40:00,93.8,75.7,29.88,SSW,207,2.0,6.0,56,0.00,CLR,,0.00,0.0,WeatherDisplay:10.37,2013-06-11 22:40:00,
2013-06-11 17:50:00,94.3,75.1,29.88,SW,214,2.0,5.0,54,0.00,CLR,,0.00,0.0,WeatherDisplay:10.37,2013-06-11 22:50:00,
2013-06-11 18:00:00,94.5,75.8,29.88,SSW,205,1.0,5.0,55,0.00,CLR,,0.00,0.0,WeatherDisplay:10.37,2013-06-11 23:00:00,
2013-06-11 18:10:00,94.9,75.7,29.88,SW,219,2.0,4.0,54,0.00,CLR,,0.00,0.0,WeatherDisplay:10.37,2013-06-11 23:10:00,
2013-06-11 18:20:00,94.8,75.0,29.88,SSW,207,2.0,5.0,53,0.00,CLR,,0.00,0.0,WeatherDisplay:10.37,2013-06-11 23:20:00,
2013-06-11 18:30:00,94.8,75.0,29.88,SSW,210,1.0,5.0,53,0.00,CLR,,0.00,0.0,WeatherDisplay:10.37,2013-06-11 23:30:00,
2013-06-11 18:40:00,94.5,74.1,29.88,SSW,192,3.0,7.0,52,0.00,CLR,,0.00,0.0,WeatherDisplay:10.37,2013-06-11 23:40:00,
2013-06-11 18:50:00,94.3,75.1,29.88,SSW,204,1.0,6.0,54,0.00,CLR,,0.00,0.0,WeatherDisplay:10.37,2013-06-11 23:50:00,
2013-06-11 19:00:00,94.1,74.9,29.88,South,181,2.0,4.0,54,0.00,CLR,,0.00,0.0,WeatherDisplay:10.37,2013-06-12 00:00:00,
2013-06-11 19:10:00,93.5,75.4,29.88,SW,214,0.0,3.0,56,0.00,CLR,,0.00,0.0,WeatherDisplay:10.37,2013-06-12 00:10:00,
2013-06-11 19:20:00,93.4,75.9,29.88,SE,129,0.0,1.0,57,0.00,CLR,,0.00,0.0,WeatherDisplay:10.37,2013-06-12 00:20:00,
2013-06-11 19:30:00,92.7,75.2,29.88,SE,139,1.0,3.0,57,0.00,CLR,,0.00,0.0,WeatherDisplay:10.37,2013-06-12 00:30:00,
2013-06-11 19:40:00,91.4,75.6,29.88,SSE,157,1.0,3.0,60,0.00,CLR,,0.00,0.0,WeatherDisplay:10.37,2013-06-12 00:40:00,
2013-06-11 19:50:00,90.5,75.7,29.88,SE,143,0.0,3.0,62,0.00,CLR,,0.00,0.0,WeatherDisplay:10.37,2013-06-12 00:50:00,
2013-06-11 20:00:00,89.6,75.8,29.88,SSW,204,0.0,1.0,64,0.00,CLR,,0.00,0.0,WeatherDisplay:10.37,2013-06-12 01:00:00,
2013-06-11 20:10:00,88.6,75.3,29.88,SSW,202,0.0,2.0,65,0.00,CLR,,0.00,0.0,WeatherDisplay:10.37,2013-06-12 01:10:00,
2013-06-11 20:20:00,87.4,75.5,29.88,SSW,208,0.0,2.0,68,0.00,CLR,,0.00,0.0,WeatherDisplay:10.37,2013-06-12 01:20:00,
2013-06-11 20:30:00,86.6,75.6,29.88,SW,223,0.0,1.0,70,0.00,CLR,,0.00,0.0,WeatherDisplay:10.37,2013-06-12 01:30:00,
2013-06-11 20:40:00,85.9,75.0,29.88,South,191,1.0,2.0,70,0.00,CLR,,0.00,0.0,WeatherDisplay:10.37,2013-06-12 01:40:00,
2013-06-11 20:50:00,85.3,74.8,29.88,SSE,162,1.0,1.0,71,0.00,CLR,,0.00,0.0,WeatherDisplay:10.37,2013-06-12 01:50:00,
2013-06-11 21:00:00,84.8,74.3,29.88,SSE,155,0.0,1.0,71,0.00,CLR,,0.00,0.0,WeatherDisplay:10.37,2013-06-12 02:00:00,
2013-06-11 21:10:00,84.5,74.1,29.88,SSW,209,0.0,1.0,71,0.00,CLR,,0.00,0.0,WeatherDisplay:10.37,2013-06-12 02:10:00,
2013-06-11 21:20:00,84.0,74.0,29.89,SSE,163,0.0,1.0,72,0.00,CLR,,0.00,0.0,WeatherDisplay:10.37,2013-06-12 02:20:00,
2013-06-11 21:30:00,83.7,73.7,29.89,South,179,1.0,2.0,72,0.00,CLR,,0.00,0.0,WeatherDisplay:10.37,2013-06-12 02:30:00,
2013-06-11 21:40:00,83.7,74.1,29.89,South,183,1.0,2.0,73,0.00,CLR,,0.00,0.0,WeatherDisplay:10.37,2013-06-12 02:40:00,
2013-06-11 21:50:00,83.1,73.9,29.90,SSW,196,1.0,2.0,74,0.00,CLR,,0.00,0.0,WeatherDisplay:10.37,2013-06-12 02:50:00,
2013-06-11 22:00:00,83.5,73.9,29.90,SW,222,1.0,3.0,73,0.00,CLR,,0.00,0.0,WeatherDisplay:10.37,2013-06-12 03:00:00,
2013-06-11 22:10:00,83.8,73.8,29.90,SW,225,1.0,3.0,72,0.00,CLR,,0.00,0.0,WeatherDisplay:10.37,2013-06-12 03:10:00,
2013-06-11 22:20:00,83.5,73.9,29.90,SW,224,1.0,4.0,73,0.00,CLR,,0.00,0.0,WeatherDisplay:10.37,2013-06-12 03:20:00,
2013-06-11 22:30:00,83.4,73.8,29.90,WSW,242,1.0,4.0,73,0.00,CLR,,0.00,0.0,WeatherDisplay:10.37,2013-06-12 03:30:00,
2013-06-11 22:40:00,82.8,73.7,29.90,SW,228,0.0,2.0,74,0.00,CLR,,0.00,0.0,WeatherDisplay:10.37,2013-06-12 03:40:00,
2013-06-11 22:50:00,82.5,73.8,29.90,SW,228,0.0,2.0,75,0.00,CLR,,0.00,0.0,WeatherDisplay:10.37,2013-06-12 03:50:00,
2013-06-11 23:00:00,82.2,73.4,29.91,WSW,256,0.0,1.0,75,0.00,CLR,,0.00,0.0,WeatherDisplay:10.37,2013-06-12 04:00:00,
2013-06-11 23:10:00,82.0,73.3,29.91,WSW,255,0.0,1.0,75,0.00,CLR,,0.00,0.0,WeatherDisplay:10.37,2013-06-12 04:10:00,
2013-06-11 23:20:00,81.4,73.1,29.92,SSW,207,1.0,1.0,76,0.00,CLR,,0.00,0.0,WeatherDisplay:10.37,2013-06-12 04:20:00,
2013-06-11 23:30:00,81.4,73.1,29.91,SSW,202,0.0,1.0,76,0.00,CLR,,0.00,0.0,WeatherDisplay:10.37,2013-06-12 04:30:00,
2013-06-11 23:40:00,81.0,73.1,29.91,SE,145,0.0,1.0,77,0.00,CLR,,0.00,0.0,WeatherDisplay:10.37,2013-06-12 04:40:00,
2013-06-11 23:50:00,80.7,72.8,29.91,SW,217,1.0,2.0,77,0.00,CLR,,0.00,0.0,WeatherDisplay:10.37,2013-06-12 04:50:00,